Location: Mittersill
(44.1801°N, 71.7142°W)
Time: 03:17:01
(UTC+00:00)

CZ-2C R/B - Pass Details

Date: 10 September 2024
Orbit: 452 x 496 km, 97.8° (Epoch: 04 October)

Event Time Altitude Azimuth Distance (km) Brightness Sun altitude
Rises 23:22:58 0° 182° (S) 2,522 6.1 -3.9°
Reaches altitude 10° 23:25:07 10° 190° (S) 1,639 5.3 -4.3°
Maximum altitude 23:28:26 39° 261° (W) 718 4.2 -4.9°
Drops below altitude 10° 23:31:44 10° 332° (NNW) 1,626 5.8 -5.5°
Sets 23:33:52 0° 340° (NNW) 2,498 6.7 -5.8°
